Year,Month,Day,Hour,Minute,Value (Times are PST for temperature in C)
2015,05,20,07,49,13.60
2015,05,20,07,50,13.60
2015,05,20,07,51,13.60
2015,05,20,07,52,13.60
2015,05,20,07,53,13.70
2015,05,20,07,54,13.60
2015,05,20,07,55,13.60
2015,05,20,07,56,13.50
2015,05,20,07,57,13.50
2015,05,20,07,58,13.50
2015,05,20,07,59,13.50
2015,05,20,08,00,13.50
2015,05,20,08,01,13.50
2015,05,20,08,02,13.60
2015,05,20,08,03,13.60
2015,05,20,08,04,13.60
2015,05,20,08,05,13.60
2015,05,20,08,06,13.50
2015,05,20,08,07,13.50
2015,05,20,08,08,13.40
2015,05,20,08,09,13.40
2015,05,20,08,10,13.40
2015,05,20,08,11,13.40
2015,05,20,08,12,13.40
2015,05,20,08,13,13.30
2015,05,20,08,14,13.30
2015,05,20,08,15,13.30
2015,05,20,08,16,13.30
2015,05,20,08,17,13.40
2015,05,20,08,18,13.40
2015,05,20,08,19,13.40
2015,05,20,08,20,13.40
2015,05,20,08,21,13.40
2015,05,20,08,22,13.50
2015,05,20,08,23,13.50
2015,05,20,08,24,13.50
2015,05,20,08,25,13.50
2015,05,20,08,26,13.50
2015,05,20,08,27,13.50
2015,05,20,08,28,13.60
2015,05,20,08,29,13.60
2015,05,20,08,30,13.60
2015,05,20,08,31,13.70
2015,05,20,08,32,13.70
2015,05,20,08,33,13.70
2015,05,20,08,34,13.70
2015,05,20,08,35,13.70
2015,05,20,08,36,13.70
2015,05,20,08,37,13.60
2015,05,20,08,38,13.60
2015,05,20,08,39,13.50
2015,05,20,08,40,13.40
2015,05,20,08,41,13.20
2015,05,20,08,42,13.20
2015,05,20,08,43,13.10
2015,05,20,08,44,13.10
2015,05,20,08,45,13.20
2015,05,20,08,46,13.20
2015,05,20,08,47,13.30
2015,05,20,08,48,13.30
2015,05,20,08,49,13.40
2015,05,20,08,50,13.40
2015,05,20,08,51,13.50
2015,05,20,08,52,13.60
2015,05,20,08,53,13.70
2015,05,20,08,54,13.70
2015,05,20,08,55,13.80
2015,05,20,08,56,13.70
2015,05,20,08,57,13.70
2015,05,20,08,58,13.70
2015,05,20,08,59,13.70
2015,05,20,09,00,13.80
2015,05,20,09,01,13.90
2015,05,20,09,02,13.90
2015,05,20,09,03,14.10
2015,05,20,09,04,14.20
2015,05,20,09,05,14.40
2015,05,20,09,06,14.60
2015,05,20,09,07,14.80
2015,05,20,09,08,15.00
2015,05,20,09,09,15.00
2015,05,20,09,10,15.00
2015,05,20,09,11,15.10
2015,05,20,09,12,15.30
2015,05,20,09,13,15.40
2015,05,20,09,14,15.50
2015,05,20,09,15,15.50
2015,05,20,09,16,15.60
2015,05,20,09,17,15.60
2015,05,20,09,18,15.50
2015,05,20,09,19,15.50
2015,05,20,09,20,15.50
2015,05,20,09,21,15.60
2015,05,20,09,22,15.70
2015,05,20,09,23,15.80
2015,05,20,09,24,15.80
2015,05,20,09,25,15.80
2015,05,20,09,26,15.80
2015,05,20,09,27,15.90
2015,05,20,09,28,15.90
2015,05,20,09,29,16.00
2015,05,20,09,30,16.20
2015,05,20,09,31,16.30
2015,05,20,09,32,16.30
2015,05,20,09,33,16.20
2015,05,20,09,34,16.20
2015,05,20,09,35,16.10
2015,05,20,09,36,16.20
2015,05,20,09,37,16.20
2015,05,20,09,38,16.30
2015,05,20,09,39,16.30
2015,05,20,09,40,16.40
2015,05,20,09,41,16.50
2015,05,20,09,42,16.60
2015,05,20,09,43,16.60
2015,05,20,09,44,16.60
2015,05,20,09,45,16.60
2015,05,20,09,46,16.60
2015,05,20,09,47,16.70
2015,05,20,09,48,16.70
2015,05,20,09,49,16.60
2015,05,20,09,50,16.60
2015,05,20,09,51,16.50
2015,05,20,09,52,16.50
2015,05,20,09,53,16.60
2015,05,20,09,54,16.70
2015,05,20,09,55,16.80
2015,05,20,09,56,16.90
2015,05,20,09,57,17.00
2015,05,20,09,58,17.10
2015,05,20,09,59,17.10
2015,05,20,10,00,17.20
2015,05,20,10,01,17.10
2015,05,20,10,02,17.10
2015,05,20,10,03,17.00
2015,05,20,10,04,16.90
2015,05,20,10,05,16.90
2015,05,20,10,06,16.80
2015,05,20,10,07,16.80
2015,05,20,10,08,16.70
2015,05,20,10,09,16.60
2015,05,20,10,10,16.60
2015,05,20,10,11,16.60
2015,05,20,10,12,16.60
2015,05,20,10,13,16.50
2015,05,20,10,14,16.40
2015,05,20,10,15,16.40
2015,05,20,10,16,16.30
2015,05,20,10,17,16.30
2015,05,20,10,18,16.10
2015,05,20,10,19,15.90
2015,05,20,10,20,15.70
2015,05,20,10,21,15.50
2015,05,20,10,22,15.40
2015,05,20,10,23,15.40
2015,05,20,10,24,15.30
2015,05,20,10,25,15.40
2015,05,20,10,26,15.30
2015,05,20,10,27,15.30
2015,05,20,10,28,15.40
2015,05,20,10,29,15.40
2015,05,20,10,30,15.50
2015,05,20,10,31,15.40
2015,05,20,10,32,15.50
2015,05,20,10,33,15.50
2015,05,20,10,34,15.50
2015,05,20,10,35,15.60
2015,05,20,10,36,15.60
2015,05,20,10,37,15.70
2015,05,20,10,38,15.80
2015,05,20,10,39,15.90
2015,05,20,10,40,15.90
2015,05,20,10,41,16.00
2015,05,20,10,42,16.00
2015,05,20,10,43,16.10
2015,05,20,10,44,16.20
2015,05,20,10,45,16.30
2015,05,20,10,46,16.50
2015,05,20,10,47,16.70
2015,05,20,10,48,16.80
2015,05,20,10,49,16.80
2015,05,20,10,50,16.80
2015,05,20,10,51,16.90
2015,05,20,10,52,17.00
2015,05,20,10,53,17.10
2015,05,20,10,54,17.10
2015,05,20,10,55,17.00
2015,05,20,10,56,16.90
2015,05,20,10,57,16.80
2015,05,20,10,58,16.60
2015,05,20,10,59,16.60
2015,05,20,11,00,16.60
2015,05,20,11,01,16.60
2015,05,20,11,02,16.60
2015,05,20,11,03,16.60
2015,05,20,11,04,16.60
2015,05,20,11,05,16.70
2015,05,20,11,06,16.80
2015,05,20,11,07,16.90
2015,05,20,11,08,16.90
2015,05,20,11,09,16.90
2015,05,20,11,10,16.80
2015,05,20,11,11,16.90
2015,05,20,11,12,17.00
2015,05,20,11,13,17.10
2015,05,20,11,14,17.30
2015,05,20,11,15,17.50
2015,05,20,11,16,17.70
2015,05,20,11,17,17.90
2015,05,20,11,18,17.90
2015,05,20,11,19,17.70
2015,05,20,11,20,17.50
2015,05,20,11,21,17.30
2015,05,20,11,22,17.00
2015,05,20,11,23,16.80
2015,05,20,11,24,16.70
2015,05,20,11,25,16.60
2015,05,20,11,26,16.70
2015,05,20,11,27,16.70
2015,05,20,11,28,16.80
2015,05,20,11,29,16.90
2015,05,20,11,30,16.90
2015,05,20,11,31,16.90
2015,05,20,11,32,16.80
2015,05,20,11,33,16.70
2015,05,20,11,34,16.50
2015,05,20,11,35,16.40
2015,05,20,11,36,16.30
2015,05,20,11,37,16.20
2015,05,20,11,38,16.10
2015,05,20,11,39,16.00
2015,05,20,11,40,15.90
2015,05,20,11,41,16.00
2015,05,20,11,42,16.00
2015,05,20,11,43,16.20
2015,05,20,11,44,16.30
2015,05,20,11,45,16.60
2015,05,20,11,46,16.80
2015,05,20,11,47,17.10
2015,05,20,11,48,17.30
2015,05,20,11,49,17.50
2015,05,20,11,50,17.60
2015,05,20,11,51,17.60
2015,05,20,11,52,17.30
2015,05,20,11,53,17.00
2015,05,20,11,54,16.70
2015,05,20,11,55,16.40
2015,05,20,11,56,16.20
2015,05,20,11,57,16.00
2015,05,20,11,58,15.90
2015,05,20,11,59,15.90
2015,05,20,12,00,15.90
2015,05,20,12,01,15.80
2015,05,20,12,02,15.70
2015,05,20,12,03,15.50
2015,05,20,12,04,15.40
2015,05,20,12,05,15.30
2015,05,20,12,06,15.30
2015,05,20,12,07,15.40
2015,05,20,12,08,15.40
2015,05,20,12,09,15.40
2015,05,20,12,10,15.40
2015,05,20,12,11,15.30
2015,05,20,12,12,15.20
2015,05,20,12,13,15.30
2015,05,20,12,14,15.60
2015,05,20,12,15,15.90
2015,05,20,12,16,16.10
2015,05,20,12,17,16.30
2015,05,20,12,18,16.30
2015,05,20,12,19,16.20
2015,05,20,12,20,16.10
2015,05,20,12,21,16.10
2015,05,20,12,22,16.10
2015,05,20,12,23,16.20
2015,05,20,12,24,16.20
2015,05,20,12,25,16.40
2015,05,20,12,26,16.50
2015,05,20,12,27,16.60
2015,05,20,12,28,16.80
2015,05,20,12,29,16.80
2015,05,20,12,30,16.80
2015,05,20,12,31,16.70
2015,05,20,12,32,16.50
2015,05,20,12,33,16.30
2015,05,20,12,34,16.20
2015,05,20,12,35,16.20
2015,05,20,12,36,16.30
2015,05,20,12,37,16.50
2015,05,20,12,38,16.50
2015,05,20,12,39,16.40
2015,05,20,12,40,16.30
2015,05,20,12,41,16.30
2015,05,20,12,42,16.40
2015,05,20,12,43,16.60
2015,05,20,12,44,16.60
2015,05,20,12,45,16.80
2015,05,20,12,46,16.90
2015,05,20,12,47,17.10
2015,05,20,12,48,17.20
2015,05,20,12,49,17.20
2015,05,20,12,50,17.10
2015,05,20,12,51,16.90
2015,05,20,12,52,16.80
2015,05,20,12,53,16.80
2015,05,20,12,54,16.70
2015,05,20,12,55,16.60
2015,05,20,12,56,16.70
2015,05,20,12,57,16.80
2015,05,20,12,58,17.00
2015,05,20,12,59,17.00
2015,05,20,13,00,17.00
2015,05,20,13,01,16.90
2015,05,20,13,02,17.00
2015,05,20,13,03,17.10
2015,05,20,13,04,17.30
2015,05,20,13,05,17.40
2015,05,20,13,06,17.40
2015,05,20,13,07,17.40
2015,05,20,13,08,17.30
2015,05,20,13,09,17.30
2015,05,20,13,10,17.40
2015,05,20,13,11,17.50
2015,05,20,13,12,17.60
2015,05,20,13,13,17.50
2015,05,20,13,14,17.50
2015,05,20,13,15,17.50
2015,05,20,13,16,17.50
2015,05,20,13,17,17.40
2015,05,20,13,18,17.30
2015,05,20,13,19,17.30
2015,05,20,13,20,17.30
2015,05,20,13,21,17.40
2015,05,20,13,22,17.50
2015,05,20,13,23,17.60
2015,05,20,13,24,17.70
2015,05,20,13,25,17.70
2015,05,20,13,26,17.70
2015,05,20,13,27,17.70
2015,05,20,13,28,17.80
2015,05,20,13,29,17.90
2015,05,20,13,30,18.10
2015,05,20,13,31,18.20
2015,05,20,13,32,18.30
2015,05,20,13,33,18.30
2015,05,20,13,34,18.30
2015,05,20,13,35,18.40
2015,05,20,13,36,18.30
2015,05,20,13,37,18.20
2015,05,20,13,38,18.00
2015,05,20,13,39,17.80
2015,05,20,13,40,17.70
2015,05,20,13,41,17.60
2015,05,20,13,42,17.60
2015,05,20,13,43,17.60
2015,05,20,13,44,17.70
2015,05,20,13,45,17.80
2015,05,20,13,46,17.90
2015,05,20,13,47,17.90
2015,05,20,13,48,18.00
2015,05,20,13,49,18.10
2015,05,20,13,50,18.10
2015,05,20,13,51,18.10
2015,05,20,13,52,18.20
2015,05,20,13,53,18.20
2015,05,20,13,54,18.30
2015,05,20,13,55,18.30
2015,05,20,13,56,18.30
2015,05,20,13,57,18.40
2015,05,20,13,58,18.50
2015,05,20,13,59,18.60
2015,05,20,14,00,18.70
2015,05,20,14,01,18.90
2015,05,20,14,02,19.10
2015,05,20,14,03,19.20
2015,05,20,14,04,19.30
2015,05,20,14,05,19.40
2015,05,20,14,06,19.40
2015,05,20,14,07,19.50
2015,05,20,14,08,19.70
2015,05,20,14,09,19.80
2015,05,20,14,10,19.90
2015,05,20,14,11,19.90
2015,05,20,14,12,19.80
2015,05,20,14,13,19.80
2015,05,20,14,14,19.80
2015,05,20,14,15,19.50
2015,05,20,14,16,19.40
2015,05,20,14,17,19.50
2015,05,20,14,18,19.50
2015,05,20,14,19,19.60
2015,05,20,14,20,19.70
2015,05,20,14,21,19.80
2015,05,20,14,22,19.70
2015,05,20,14,23,19.50
2015,05,20,14,24,19.40
2015,05,20,14,25,19.30
2015,05,20,14,26,19.20
2015,05,20,14,27,19.20
2015,05,20,14,28,19.40
2015,05,20,14,29,19.50
2015,05,20,14,30,19.70
2015,05,20,14,31,19.90
2015,05,20,14,32,20.10
2015,05,20,14,33,20.30
2015,05,20,14,34,20.40
2015,05,20,14,35,20.60
2015,05,20,14,36,20.80
2015,05,20,14,37,20.70
2015,05,20,14,38,20.60
2015,05,20,14,39,20.50
2015,05,20,14,40,20.60
2015,05,20,14,41,20.70
2015,05,20,14,42,20.80
2015,05,20,14,43,20.90
2015,05,20,14,44,20.90
2015,05,20,14,45,21.00
2015,05,20,14,46,21.00
2015,05,20,14,47,21.10
2015,05,20,14,48,21.10
2015,05,20,14,49,21.10
2015,05,20,14,50,21.00
2015,05,20,14,51,20.90
2015,05,20,14,52,20.90
2015,05,20,14,53,21.00
2015,05,20,14,54,21.00
2015,05,20,14,55,21.10
2015,05,20,14,56,21.10
2015,05,20,14,57,21.10
2015,05,20,14,58,21.20
2015,05,20,14,59,21.10
2015,05,20,15,00,21.00
2015,05,20,15,01,20.80
2015,05,20,15,02,20.60
2015,05,20,15,03,20.60
2015,05,20,15,04,20.60
2015,05,20,15,05,20.50
2015,05,20,15,06,20.30
2015,05,20,15,07,20.10
2015,05,20,15,08,19.80
2015,05,20,15,09,19.70
2015,05,20,15,10,19.50
2015,05,20,15,11,19.40
2015,05,20,15,12,19.40
2015,05,20,15,13,19.40
2015,05,20,15,14,19.40
2015,05,20,15,15,19.50
2015,05,20,15,16,19.70
2015,05,20,15,17,19.90
2015,05,20,15,18,20.00
2015,05,20,15,19,20.20
2015,05,20,15,20,20.20
2015,05,20,15,21,20.10
2015,05,20,15,22,20.00
2015,05,20,15,23,19.90
2015,05,20,15,24,20.00
2015,05,20,15,25,20.00
2015,05,20,15,26,19.90
2015,05,20,15,27,19.90
2015,05,20,15,28,19.90
2015,05,20,15,29,19.90
2015,05,20,15,30,20.00
2015,05,20,15,31,20.00
2015,05,20,15,32,19.90
2015,05,20,15,33,19.90
2015,05,20,15,34,20.00
2015,05,20,15,35,20.00
2015,05,20,15,36,20.00
2015,05,20,15,37,20.00
2015,05,20,15,38,20.00
2015,05,20,15,39,20.00
2015,05,20,15,40,20.00
2015,05,20,15,41,20.00
2015,05,20,15,42,20.00
2015,05,20,15,43,20.00
2015,05,20,15,44,20.00
2015,05,20,15,45,20.10
2015,05,20,15,46,20.20
2015,05,20,15,47,20.20
2015,05,20,15,48,20.30
2015,05,20,15,49,20.30
2015,05,20,15,50,20.30
2015,05,20,15,51,20.40
2015,05,20,15,52,20.40
2015,05,20,15,53,20.30
2015,05,20,15,54,20.40
2015,05,20,15,55,20.50
2015,05,20,15,56,20.50
2015,05,20,15,57,20.40
2015,05,20,15,58,20.30
2015,05,20,15,59,20.20
2015,05,20,16,00,20.20
2015,05,20,16,01,20.20
2015,05,20,16,02,20.20
2015,05,20,16,03,20.20
2015,05,20,16,04,20.20
2015,05,20,16,05,20.10
2015,05,20,16,06,20.10
2015,05,20,16,07,20.10
2015,05,20,16,08,20.20
2015,05,20,16,09,20.20
2015,05,20,16,10,20.20
2015,05,20,16,11,20.20
2015,05,20,16,12,20.30
2015,05,20,16,13,20.40
2015,05,20,16,14,20.50
2015,05,20,16,15,20.50
2015,05,20,16,16,20.60
2015,05,20,16,17,20.60
2015,05,20,16,18,20.60
2015,05,20,16,19,20.60
2015,05,20,16,20,20.60
2015,05,20,16,21,20.60
2015,05,20,16,22,20.70
2015,05,20,16,23,20.70
2015,05,20,16,24,20.70
2015,05,20,16,25,20.80
2015,05,20,16,26,20.80
2015,05,20,16,27,20.80
2015,05,20,16,28,20.80
2015,05,20,16,29,20.70
2015,05,20,16,30,20.70
2015,05,20,16,31,20.70
2015,05,20,16,32,20.70
2015,05,20,16,33,20.70
2015,05,20,16,34,20.80
2015,05,20,16,35,20.80
2015,05,20,16,36,20.80
2015,05,20,16,37,20.90
2015,05,20,16,38,20.90
2015,05,20,16,39,20.90
2015,05,20,16,40,21.00
2015,05,20,16,41,21.10
2015,05,20,16,42,21.20
2015,05,20,16,43,21.30
2015,05,20,16,44,21.40
2015,05,20,16,45,21.60
2015,05,20,16,46,21.70
2015,05,20,16,47,21.90
2015,05,20,16,48,22.00
2015,05,20,16,49,22.10
2015,05,20,16,50,22.30
2015,05,20,16,51,22.30
2015,05,20,16,52,22.30
2015,05,20,16,53,22.50
2015,05,20,16,54,22.70
2015,05,20,16,55,22.80
2015,05,20,16,56,23.00
2015,05,20,16,57,23.20
2015,05,20,16,58,23.20
2015,05,20,16,59,23.30
2015,05,20,17,00,23.30
2015,05,20,17,01,23.30
2015,05,20,17,02,23.30
2015,05,20,17,03,23.30
2015,05,20,17,04,23.30
2015,05,20,17,05,23.30
2015,05,20,17,06,23.40
2015,05,20,17,07,23.30
2015,05,20,17,08,23.40
2015,05,20,17,09,23.50
2015,05,20,17,10,23.60
2015,05,20,17,11,23.60
2015,05,20,17,12,23.60
2015,05,20,17,13,23.60
2015,05,20,17,14,23.70
2015,05,20,17,15,23.80
2015,05,20,17,16,23.80
2015,05,20,17,17,23.90
2015,05,20,17,18,23.90
2015,05,20,17,19,23.90
2015,05,20,17,20,23.70
2015,05,20,17,21,23.50
2015,05,20,17,22,23.40
2015,05,20,17,23,23.40
2015,05,20,17,24,23.40
2015,05,20,17,25,23.40
2015,05,20,17,26,23.40
2015,05,20,17,27,23.40
2015,05,20,17,28,23.50
2015,05,20,17,29,23.50
2015,05,20,17,30,23.50
2015,05,20,17,31,23.60
2015,05,20,17,32,23.60
2015,05,20,17,33,23.70
2015,05,20,17,34,23.80
2015,05,20,17,35,23.80
2015,05,20,17,36,23.90
2015,05,20,17,37,23.90
2015,05,20,17,38,24.00
2015,05,20,17,39,24.00
2015,05,20,17,40,24.10
2015,05,20,17,41,24.10
2015,05,20,17,42,24.10
2015,05,20,17,43,24.00
2015,05,20,17,44,24.00
2015,05,20,17,45,24.00
2015,05,20,17,46,24.00
2015,05,20,17,47,23.90
2015,05,20,17,48,23.90
2015,05,20,17,49,23.90
2015,05,20,17,50,23.90
2015,05,20,17,51,23.80
2015,05,20,17,52,23.70
2015,05,20,17,53,23.70
2015,05,20,17,54,23.70
2015,05,20,17,55,23.70
2015,05,20,17,56,23.60
2015,05,20,17,57,23.60
2015,05,20,17,58,23.60
2015,05,20,17,59,23.60
2015,05,20,18,00,23.70
2015,05,20,18,01,23.70
2015,05,20,18,02,23.70
2015,05,20,18,03,23.70
2015,05,20,18,04,23.80
2015,05,20,18,05,23.80
2015,05,20,18,06,23.80
2015,05,20,18,07,23.90
2015,05,20,18,08,24.00
2015,05,20,18,09,24.00
2015,05,20,18,10,24.00
2015,05,20,18,11,23.90
2015,05,20,18,12,23.90
2015,05,20,18,13,24.00
2015,05,20,18,14,24.00
2015,05,20,18,15,24.10
2015,05,20,18,16,24.10
2015,05,20,18,17,24.10
2015,05,20,18,18,24.00
2015,05,20,18,19,24.00
2015,05,20,18,20,24.00
2015,05,20,18,21,24.00
2015,05,20,18,22,24.00
2015,05,20,18,23,24.00
2015,05,20,18,24,23.90
2015,05,20,18,25,23.90
2015,05,20,18,26,23.80
2015,05,20,18,27,23.80
2015,05,20,18,28,23.80
2015,05,20,18,29,23.80
2015,05,20,18,30,23.80
2015,05,20,18,31,23.80
2015,05,20,18,32,23.80
2015,05,20,18,33,23.70
2015,05,20,18,34,23.70
2015,05,20,18,35,23.60
2015,05,20,18,36,23.50
2015,05,20,18,37,23.50
2015,05,20,18,38,23.50
2015,05,20,18,39,23.40
2015,05,20,18,40,23.30
2015,05,20,18,41,23.30
2015,05,20,18,42,23.30
2015,05,20,18,43,23.30
2015,05,20,18,44,23.30
2015,05,20,18,45,23.30
2015,05,20,18,46,23.30
2015,05,20,18,47,23.30
2015,05,20,18,48,23.30
2015,05,20,18,49,23.30
2015,05,20,18,50,23.30
2015,05,20,18,51,23.30
2015,05,20,18,52,23.30
2015,05,20,18,53,23.30
2015,05,20,18,54,23.30
2015,05,20,18,55,23.20
2015,05,20,18,56,23.20
2015,05,20,18,57,23.10
2015,05,20,18,58,23.10
2015,05,20,18,59,23.00
2015,05,20,19,00,23.00
2015,05,20,19,01,23.00
2015,05,20,19,02,23.00
2015,05,20,19,03,23.00
2015,05,20,19,04,23.00
2015,05,20,19,05,23.00
2015,05,20,19,06,23.10
2015,05,20,19,07,23.10
2015,05,20,19,08,23.00
2015,05,20,19,09,23.00
2015,05,20,19,10,23.00
2015,05,20,19,11,22.90
2015,05,20,19,12,22.90
2015,05,20,19,13,23.00
2015,05,20,19,14,23.00
2015,05,20,19,15,23.00
2015,05,20,19,16,23.10
2015,05,20,19,17,23.10
2015,05,20,19,18,23.10
2015,05,20,19,19,23.10
2015,05,20,19,20,23.10
2015,05,20,19,21,23.10
2015,05,20,19,22,23.10
2015,05,20,19,23,23.10
2015,05,20,19,24,23.10
2015,05,20,19,25,23.10
2015,05,20,19,26,23.10
2015,05,20,19,27,23.10
2015,05,20,19,28,23.10
2015,05,20,19,29,23.10
2015,05,20,19,30,23.00
2015,05,20,19,31,23.00
2015,05,20,19,32,23.00
2015,05,20,19,33,23.00
2015,05,20,19,34,23.00
2015,05,20,19,35,23.00
2015,05,20,19,36,23.00
2015,05,20,19,37,23.00
2015,05,20,19,38,23.00
2015,05,20,19,39,23.00
2015,05,20,19,40,23.00
2015,05,20,19,41,23.00
2015,05,20,19,42,23.00
2015,05,20,19,43,23.00
2015,05,20,19,44,23.00
2015,05,20,19,45,23.00
2015,05,20,19,46,23.00
2015,05,20,19,47,23.00
2015,05,20,19,48,23.00
